Location: Tel Aviv
(32.0670°N, 34.7670°E)
Time: 05:52:41
(UTC+03:00)

ITUPSAT 1 - Visible Passes

Search period start: 29 March 2023 00:00
Search period end: 08 April 2023 00:00
Orbit: 699 x 709 km, 98.5° (Epoch: 28 March)

Date Brightness Start Highest point End Pass type
(mag) Time Alt. Az. Time Alt. Az. Time Alt. Az.
04 Apr ? 21:50:37 10° N 21:50:47 11° N 21:50:47 11° N visible
05 Apr ? 22:34:34 10° NNW 22:34:46 11° NNW 22:34:46 11° NNW visible
06 Apr ? 21:39:32 10° NNE 21:39:50 12° NNE 21:39:50 12° NNE visible
07 Apr ? 22:23:11 10° N 22:23:49 13° N 22:23:49 13° N visible
